| time (UTC) | temp F | wind direction | speed MPH | gust MPH | rain 1hr in | rain 24hr in | rain mn in | humidity % | barometer mb |
| 20260504215505 | 66 | 169 | 10.0 | 17.0 | 0.00 | 0.00 | 0.00 | 56 | 987.9 |
| 20260504215000 | 66 | 225 | 7.0 | 19.0 | 0.00 | 0.00 | 0.00 | 58 | 988.0 |
| 20260504214601 | 65 | 163 | 9.0 | 19.0 | 0.00 | 0.00 | 0.00 | 57 | 988.1 |
| 20260504214104 | 65 | 179 | 9.0 | 20.0 | 0.00 | 0.00 | 0.00 | 59 | 988.1 |
| 20260504213600 | 66 | 227 | 11.0 | 20.0 | 0.00 | 0.00 | 0.00 | 57 | 988.1 |
| 20260504213104 | 66 | 220 | 8.0 | 21.0 | 0.00 | 0.00 | 0.00 | 58 | 988.2 |
| 20260504212602 | 65 | 196 | 10.0 | 17.0 | 0.00 | 0.00 | 0.00 | 57 | 988.2 |
| 20260504212101 | 66 | 206 | 9.0 | 17.0 | 0.00 | 0.00 | 0.00 | 56 | 988.1 |
| 20260504211602 | 66 | 210 | 6.0 | 16.0 | 0.00 | 0.00 | 0.00 | 60 | 988.2 |
| 20260504211058 | 66 | 228 | 9.0 | 15.0 | 0.00 | 0.00 | 0.00 | 58 | 988.3 |
| 20260504210600 | 65 | 233 | 7.0 | 15.0 | 0.00 | 0.00 | 0.00 | 59 | 988.4 |
| 20260504210104 | 65 | 233 | 7.0 | 16.0 | 0.00 | 0.00 | 0.00 | 59 | 988.4 |
| 20260504205559 | 65 | 227 | 8.0 | 16.0 | 0.00 | 0.00 | 0.00 | 60 | 988.3 |
| 20260504205059 | 65 | 263 | 8.0 | 17.0 | 0.00 | 0.00 | 0.00 | 61 | 988.4 |
| 20260504204602 | 65 | 247 | 9.0 | 17.0 | 0.00 | 0.00 | 0.00 | 60 | 988.4 |
| 20260504204102 | 65 | 238 | 8.0 | 16.0 | 0.00 | 0.00 | 0.00 | 60 | 988.5 |
| 20260504203558 | 65 | 227 | 8.0 | 17.0 | 0.00 | 0.00 | 0.00 | 60 | 988.5 |
| 20260504203058 | 65 | 240 | 6.0 | 17.0 | 0.00 | 0.00 | 0.00 | 61 | 988.5 |
| 20260504202559 | 65 | 247 | 7.0 | 15.0 | 0.00 | 0.00 | 0.00 | 60 | 988.5 |
| 20260504202100 | 64 | 175 | 7.0 | 15.0 | 0.00 | 0.00 | 0.00 | 61 | 988.4 |
| 20260504201607 | 64 | 207 | 9.0 | 15.0 | 0.00 | 0.00 | 0.00 | 60 | 988.4 |
| 20260504201057 | 65 | 215 | 9.0 | 15.0 | 0.00 | 0.00 | 0.00 | 61 | 988.4 |
| 20260504200557 | 64 | 217 | 11.0 | 16.0 | 0.00 | 0.00 | 0.00 | 61 | 988.4 |
| 20260504195556 | 65 | 227 | 11.0 | 17.0 | 0.00 | 0.00 | 0.00 | 60 | 988.3 |
| 20260504195056 | 65 | 180 | 9.0 | 18.0 | 0.00 | 0.00 | 0.00 | 59 | 988.3 |
| 20260504194556 | 65 | 192 | 9.0 | 17.0 | 0.00 | 0.00 | 0.00 | 59 | 988.2 |
| 20260504194056 | 65 | 217 | 6.0 | 12.0 | 0.00 | 0.00 | 0.00 | 59 | 988.3 |
| 20260504193555 | 65 | 236 | 8.0 | 13.0 | 0.00 | 0.00 | 0.00 | 60 | 988.3 |
| 20260504193055 | 66 | 234 | 6.0 | 11.0 | 0.00 | 0.00 | 0.00 | 61 | 988.4 |
| 20260504192555 | 65 | 209 | 7.0 | 13.0 | 0.00 | 0.00 | 0.00 | 59 | 988.4 |
| 20260504192053 | 65 | 231 | 8.0 | 13.0 | 0.00 | 0.00 | 0.00 | 58 | 988.4 |
| 20260504191607 | 66 | 246 | 7.0 | 12.0 | 0.00 | 0.00 | 0.00 | 57 | 988.4 |
| 20260504191053 | 66 | 216 | 6.0 | 10.0 | 0.00 | 0.00 | 0.00 | 56 | 988.4 |
| 20260504190556 | 66 | 200 | 5.0 | 13.0 | 0.00 | 0.00 | 0.00 | 56 | 988.4 |
| 20260504190054 | 66 | 192 | 8.0 | 13.0 | 0.00 | 0.00 | 0.00 | 56 | 988.4 |
| 20260504185551 | 66 | 161 | 6.0 | 10.0 | 0.00 | 0.00 | 0.00 | 56 | 988.4 |
| 20260504185051 | 65 | 176 | 7.0 | 12.0 | 0.00 | 0.00 | 0.00 | 56 | 988.5 |
| 20260504184551 | 66 | 204 | 7.0 | 12.0 | 0.00 | 0.00 | 0.00 | 56 | 988.6 |
| 20260504184051 | 65 | 198 | 5.0 | 11.0 | 0.00 | 0.00 | 0.00 | 57 | 988.6 |
| 20260504183550 | 65 | 177 | 6.0 | 11.0 | 0.00 | 0.00 | 0.00 | 58 | 988.5 |
| 20260504183050 | 65 | 165 | 5.0 | 10.0 | 0.00 | 0.00 | 0.00 | 58 | 988.5 |
| 20260504182549 | 64 | 186 | 2.0 | 8.0 | 0.00 | 0.00 | 0.00 | 55 | 988.7 |
| 20260504182048 | 64 | 217 | 5.0 | 9.0 | 0.00 | 0.00 | 0.00 | 56 | 988.7 |
| 20260504181548 | 65 | 178 | 4.0 | 13.0 | 0.00 | 0.00 | 0.00 | 55 | 988.7 |
| 20260504181048 | 64 | 169 | 7.0 | 13.0 | 0.00 | 0.00 | 0.00 | 55 | 988.7 |
| 20260504180546 | 64 | 173 | 6.0 | 11.0 | 0.00 | 0.00 | 0.00 | 56 | 988.7 |
| 20260504180045 | 64 | 167 | 6.0 | 14.0 | 0.00 | 0.00 | 0.00 | 59 | 988.8 |
| 20260504175545 | 64 | 184 | 5.0 | 14.0 | 0.00 | 0.00 | 0.00 | 58 | 988.7 |
| 20260504175045 | 64 | 182 | 4.0 | 9.0 | 0.00 | 0.00 | 0.00 | 59 | 988.8 |
| 20260504174544 | 64 | 188 | 5.0 | 11.0 | 0.00 | 0.00 | 0.00 | 62 | 988.7 |
| 20260504174044 | 63 | 148 | 4.0 | 11.0 | 0.00 | 0.00 | 0.00 | 61 | 988.7 |
| 20260504173545 | 63 | 196 | 4.0 | 8.0 | 0.00 | 0.00 | 0.00 | 64 | 988.5 |
| 20260504173043 | 63 | 125 | 4.0 | 10.0 | 0.00 | 0.00 | 0.00 | 62 | 988.6 |
| 20260504172545 | 63 | 161 | 5.0 | 12.0 | 0.00 | 0.00 | 0.00 | 62 | 988.5 |
| 20260504172043 | 64 | 165 | 4.0 | 8.0 | 0.00 | 0.00 | 0.00 | 59 | 988.6 |
| 20260504171541 | 63 | 144 | 3.0 | 8.0 | 0.00 | 0.00 | 0.00 | 60 | 988.6 |
| 20260504171040 | 63 | 157 | 3.0 | 9.0 | 0.00 | 0.00 | 0.00 | 63 | 988.5 |
| 20260504170539 | 63 | 152 | 2.0 | 7.0 | 0.00 | 0.00 | 0.00 | 64 | 988.7 |
| 20260504151015 | 54 | 237 | 1.0 | 3.0 | 0.00 | 0.00 | 0.00 | 91 | 988.4 |
| 20260504150515 | 53 | 237 | 1.0 | 2.0 | 0.00 | 0.00 | 0.00 | 91 | 988.3 |
| 20260504141112 | 49 | 195 | 0.0 | 2.0 | 0.00 | 0.00 | 0.00 | 93 | 988.2 |
| 20260504140511 | 49 | 195 | 0.0 | 0.0 | 0.00 | 0.00 | 0.00 | 93 | 988.1 |
| 20260504130600 | 49 | 195 | 1.0 | 2.0 | 0.00 | 0.00 | 0.00 | 91 | 987.7 |
| 20260504120119 | 51 | 195 | 0.0 | 1.0 | 0.00 | 0.00 | 0.00 | 90 | 987.3 |
| 20260504110548 | 53 | 194 | 0.0 | 0.0 | 0.00 | 0.01 | 0.00 | 89 | 987.5 |
| 20260504100539 | 54 | 194 | 0.0 | 0.0 | 0.00 | 0.01 | 0.00 | 87 | 987.4 |
| 20260504081530 | 56 | 194 | 0.0 | 2.0 | 0.00 | 0.01 | 0.00 | 83 | 988.4 |
| 20260504081028 | 56 | 194 | 0.0 | 0.0 | 0.00 | 0.01 | 0.00 | 83 | 988.7 |
| 20260504080529 | 56 | 194 | 0.0 | 0.0 | 0.00 | 0.01 | 0.00 | 83 | 988.9 |
| 20260504050518 | 57 | 194 | 0.0 | 0.0 | 0.00 | 0.01 | 0.01 | 81 | 988.3 |
| 20260504050018 | 57 | 194 | 0.0 | 0.0 | 0.00 | 0.01 | 0.01 | 82 | 988.2 |
| 20260504045517 | 57 | 194 | 0.0 | 0.0 | 0.00 | 0.01 | 0.01 | 82 | 988.3 |
| 20260504045025 | 57 | 194 | 0.0 | 0.0 | 0.00 | 0.01 | 0.01 | 81 | 988.3 |
| 20260504044519 | 57 | 194 | 0.0 | 0.0 | 0.00 | 0.01 | 0.01 | 81 | 988.2 |
| 20260504044017 | 57 | 194 | 0.0 | 0.0 | 0.00 | 0.01 | 0.01 | 81 | 988.2 |
| 20260504043517 | 57 | 194 | 0.0 | 0.0 | 0.00 | 0.01 | 0.01 | 81 | 988.1 |
| 20260504043017 | 57 | 194 | 0.0 | 0.0 | 0.00 | 0.01 | 0.01 | 81 | 987.8 |
| 20260504042517 | 57 | 194 | 0.0 | 0.0 | 0.00 | 0.01 | 0.01 | 81 | 987.7 |
| 20260504042015 | 57 | 194 | 0.0 | 0.0 | 0.00 | 0.01 | 0.01 | 81 | 987.7 |
| 20260504041515 | 57 | 194 | 0.0 | 0.0 | 0.00 | 0.01 | 0.01 | 81 | 987.7 |
| 20260504041015 | 57 | 194 | 0.0 | 0.0 | 0.00 | 0.01 | 0.01 | 81 | 987.7 |
| 20260504040515 | 57 | 194 | 0.0 | 0.0 | 0.00 | 0.01 | 0.01 | 80 | 987.6 |
| 20260504040015 | 57 | 194 | 0.0 | 0.0 | 0.00 | 0.01 | 0.01 | 80 | 987.4 |
| 20260504035515 | 57 | 194 | 0.0 | 0.0 | 0.00 | 0.01 | 0.01 | 80 | 987.5 |
| 20260504035014 | 57 | 194 | 0.0 | 3.0 | 0.00 | 0.01 | 0.01 | 80 | 987.3 |
| 20260504034515 | 57 | 194 | 0.0 | 3.0 | 0.00 | 0.01 | 0.01 | 80 | 987.3 |
| 20260504034015 | 57 | 194 | 1.0 | 3.0 | 0.00 | 0.01 | 0.01 | 80 | 987.4 |
| 20260504033515 | 57 | 194 | 1.0 | 5.0 | 0.00 | 0.01 | 0.01 | 80 | 987.3 |
| 20260504033015 | 57 | 194 | 2.0 | 5.0 | 0.00 | 0.01 | 0.01 | 79 | 987.3 |
| 20260504032515 | 57 | 194 | 1.0 | 3.0 | 0.00 | 0.01 | 0.01 | 79 | 987.2 |
| 20260504032014 | 57 | 194 | 1.0 | 3.0 | 0.00 | 0.01 | 0.01 | 79 | 987.1 |
| 20260504031515 | 57 | 194 | 2.0 | 3.0 | 0.00 | 0.01 | 0.01 | 78 | 987.1 |
| 20260504031013 | 57 | 194 | 0.0 | 0.0 | 0.00 | 0.01 | 0.01 | 79 | 987.0 |
| 20260504030513 | 57 | 194 | 0.0 | 0.0 | 0.00 | 0.01 | 0.01 | 79 | 987.0 |
| 20260504030016 | 57 | 194 | 0.0 | 0.0 | 0.00 | 0.01 | 0.01 | 79 | 987.0 |
| 20260504025514 | 57 | 194 | 0.0 | 2.0 | 0.00 | 0.01 | 0.01 | 79 | 986.8 |
| 20260504025017 | 57 | 194 | 0.0 | 2.0 | 0.00 | 0.01 | 0.01 | 80 | 986.8 |
| 20260504024513 | 57 | 194 | 0.0 | 3.0 | 0.00 | 0.01 | 0.01 | 80 | 986.9 |
| 20260504024013 | 57 | 194 | 1.0 | 4.0 | 0.00 | 0.01 | 0.01 | 80 | 986.9 |
| 20260504023513 | 57 | 194 | 1.0 | 5.0 | 0.00 | 0.01 | 0.01 | 80 | 986.8 |
| 20260504023013 | 57 | 194 | 1.0 | 5.0 | 0.00 | 0.01 | 0.01 | 80 | 986.9 |
| 20260504022513 | 58 | 194 | 3.0 | 6.0 | 0.00 | 0.01 | 0.01 | 80 | 986.8 |
| 20260504022012 | 58 | 202 | 3.0 | 6.0 | 0.00 | 0.01 | 0.01 | 80 | 986.7 |
| 20260504021513 | 58 | 200 | 2.0 | 6.0 | 0.00 | 0.01 | 0.01 | 80 | 986.8 |
| 20260504021012 | 58 | 215 | 3.0 | 7.0 | 0.00 | 0.01 | 0.01 | 80 | 986.7 |
| 20260504020512 | 58 | 219 | 3.0 | 8.0 | 0.00 | 0.01 | 0.01 | 80 | 986.8 |
| 20260504020012 | 58 | 192 | 4.0 | 8.0 | 0.00 | 0.01 | 0.01 | 79 | 986.8 |
| 20260504015512 | 58 | 221 | 4.0 | 10.0 | 0.00 | 0.01 | 0.01 | 80 | 987.0 |
| 20260504015012 | 58 | 207 | 5.0 | 10.0 | 0.00 | 0.01 | 0.01 | 80 | 987.0 |
| 20260504014511 | 58 | 207 | 4.0 | 7.0 | 0.00 | 0.01 | 0.01 | 80 | 986.9 |
| 20260504014014 | 58 | 196 | 4.0 | 7.0 | 0.00 | 0.01 | 0.01 | 80 | 986.6 |
| 20260504013516 | 58 | 209 | 3.0 | 7.0 | 0.00 | 0.01 | 0.01 | 80 | 986.3 |
| 20260504013016 | 58 | 223 | 3.0 | 7.0 | 0.00 | 0.01 | 0.01 | 79 | 986.4 |
| 20260504012511 | 59 | 197 | 3.0 | 10.0 | 0.00 | 0.01 | 0.01 | 79 | 986.6 |
| 20260504012011 | 59 | 212 | 6.0 | 10.0 | 0.00 | 0.01 | 0.01 | 78 | 986.8 |
| 20260504011511 | 59 | 207 | 3.0 | 8.0 | 0.00 | 0.01 | 0.01 | 77 | 986.8 |
| 20260504011010 | 59 | 169 | 4.0 | 9.0 | 0.00 | 0.01 | 0.01 | 77 | 986.7 |
| 20260504010510 | 59 | 211 | 5.0 | 10.0 | 0.00 | 0.01 | 0.01 | 76 | 986.7 |
| 20260504010010 | 59 | 221 | 5.0 | 10.0 | 0.00 | 0.01 | 0.01 | 77 | 986.5 |
| 20260504005510 | 60 | 224 | 5.0 | 12.0 | 0.00 | 0.01 | 0.01 | 75 | 986.4 |
| 20260504005010 | 60 | 233 | 5.0 | 12.0 | 0.00 | 0.01 | 0.01 | 73 | 986.5 |
| 20260504004526 | 60 | 243 | 5.0 | 11.0 | 0.00 | 0.01 | 0.01 | 72 | 986.5 |
| 20260504004010 | 60 | 227 | 4.0 | 10.0 | 0.00 | 0.01 | 0.01 | 71 | 986.4 |
| 20260504003510 | 60 | 230 | 5.0 | 10.0 | 0.00 | 0.01 | 0.01 | 69 | 986.4 |
| 20260504003009 | 61 | 235 | 4.0 | 11.0 | 0.00 | 0.01 | 0.01 | 69 | 986.3 |
| 20260504002509 | 61 | 222 | 4.0 | 12.0 | 0.00 | 0.01 | 0.01 | 69 | 986.3 |
| 20260504002009 | 61 | 225 | 5.0 | 11.0 | 0.00 | 0.01 | 0.01 | 68 | 986.4 |
| 20260504001526 | 61 | 234 | 5.0 | 11.0 | 0.00 | 0.01 | 0.01 | 67 | 986.4 |
| 20260504001009 | 61 | 231 | 5.0 | 11.0 | 0.00 | 0.01 | 0.01 | 66 | 986.4 |
| 20260504000511 | 62 | 251 | 7.0 | 10.0 | 0.00 | 0.01 | 0.01 | 65 | 986.2 |
| 20260504000008 | 63 | 213 | 3.0 | 11.0 | 0.00 | 0.01 | 0.01 | 65 | 986.2 |
| 20260503235508 | 63 | 223 | 5.0 | 10.0 | 0.00 | 0.01 | 0.01 | 64 | 986.0 |
| 20260503235008 | 63 | 237 | 6.0 | 10.0 | 0.00 | 0.01 | 0.01 | 64 | 986.0 |
| 20260503234513 | 63 | 180 | 5.0 | 10.0 | 0.00 | 0.01 | 0.01 | 65 | 986.0 |
| 20260503234009 | 63 | 214 | 4.0 | 8.0 | 0.00 | 0.01 | 0.01 | 65 | 986.0 |
| 20260503233509 | 64 | 186 | 5.0 | 8.0 | 0.00 | 0.01 | 0.01 | 65 | 985.9 |
| 20260503233007 | 64 | 208 | 4.0 | 9.0 | 0.00 | 0.01 | 0.01 | 64 | 985.8 |
| 20260503232507 | 64 | 235 | 3.0 | 10.0 | 0.00 | 0.01 | 0.01 | 65 | 985.9 |
| 20260503232007 | 64 | 196 | 5.0 | 10.0 | 0.00 | 0.01 | 0.01 | 66 | 986.1 |
| 20260503231506 | 64 | 179 | 6.0 | 11.0 | 0.00 | 0.01 | 0.01 | 65 | 986.0 |
| 20260503231008 | 64 | 173 | 4.0 | 10.0 | 0.00 | 0.01 | 0.01 | 66 | 986.0 |
| 20260503230506 | 65 | 178 | 4.0 | 10.0 | 0.00 | 0.01 | 0.01 | 65 | 986.1 |
| 20260503230007 | 66 | 82 | 1.0 | 4.0 | 0.00 | 0.01 | 0.01 | 65 | 986.2 |
| 20260503225508 | 66 | 157 | 2.0 | 6.0 | 0.00 | 0.01 | 0.01 | 65 | 986.3 |
| 20260503225004 | 66 | 163 | 4.0 | 6.0 | 0.00 | 0.01 | 0.01 | 65 | 986.2 |
| 20260503224505 | 65 | 158 | 2.0 | 6.0 | 0.00 | 0.01 | 0.01 | 66 | 986.3 |
| 20260503224004 | 66 | 156 | 2.0 | 6.0 | 0.00 | 0.01 | 0.01 | 66 | 986.4 |
| 20260503223505 | 65 | 156 | 2.0 | 6.0 | 0.00 | 0.01 | 0.01 | 66 | 986.4 |
| 20260503223007 | 65 | 157 | 3.0 | 6.0 | 0.00 | 0.01 | 0.01 | 66 | 986.4 |
| 20260503222502 | 65 | 157 | 2.0 | 6.0 | 0.00 | 0.01 | 0.01 | 66 | 986.5 |
| 20260503222002 | 66 | 19 | 1.0 | 4.0 | 0.00 | 0.01 | 0.01 | 67 | 986.6 |
| 20260503221500 | 65 | 43 | 1.0 | 3.0 | 0.00 | 0.01 | 0.01 | 70 | 986.7 |
| 20260503221102 | 65 | 5 | 1.0 | 4.0 | 0.00 | 0.01 | 0.01 | 69 | 986.7 |
| 20260503220601 | 65 | 5 | 1.0 | 4.0 | 0.00 | 0.01 | 0.01 | 69 | 986.7 |
| 20260503220100 | 65 | 333 | 1.0 | 3.0 | 0.00 | 0.01 | 0.01 | 70 | 986.8 |